sat.trackr.live / text

‹ back to catalog

STARLINK-5363

NORAD 55497 · 2023-015BA

PAYLOAD ACTIVE UNKNOWN

§ Identity

Operator
Country
US
Launch date
2023-02-02
Launch site
AFETR
Launch vehicle
Mass (kg)
RCS (m²)

Purposes: comms

External: N2YO · Heavens-Above · Gunter

§ Orbital elements

Epoch: 2026-09-20T14:34:31.289376Z

Period
94.27 min
Inclination
43.0051°
Eccentricity
0.0001630
Mean motion
15.27576563 rev/d
Perigee alt
481.9 km
Apogee alt
484.2 km
Semi-major
6,861.2 km
B*
1.5960e-6
RAAN
319.0790°
Arg perigee
282.1244°
Mean anomaly
77.9425°
Rev number
20,040

§ Raw data

STARLINK-53631 55497U 23015BA  26263.60730659 -.00000218  00000+0  15960-5 0  99932 55497  43.0051 319.0790 0001630 282.1244  77.9425 15.27576563200404

JSON: /api/v1/satellites/55497 · /tle

For live sub-satellite position, see the globe view (requires WebGL).

§ Visibility from observer

Set your observer location to see the next 7 days of passes ≥ 10°. The values pass through the URL so the page stays shareable.

No JS? Fill the form by hand. The geolocation button needs JavaScript.